ATLAS 5 CENTAUR DEB, 44652

Orbit data source: Space-Track

ATLAS 5 CENTAUR DEB, 44652 is space debris in HEO originally from a launch on Wed, 17 Oct 2018 UTC launched from the Air Force Eastern Test Range (AFETR). Debris objects in space refer to the collection of defunct objects orbiting the Earth. Examples of debris include non-operational satellites, rocket bodies, and fragments generated from explosions, collisions, or faulty payload assembly.

Loading next visibility...
Identifier
44652, 2018-079N
Orbit
HEO
Country
Flag of USUS
Related business
Flag of USUnited Launch Alliance/Lockheed Martin (US)
Manufacturer
ULA Decatur
Mission
Spacecraft
Bus & Motor
Unknown
Mass
Unknown
Launch date (UTC)
2018-10-17 (8 years ago)
Launch vehicle
Unknown
Launch site
Air Force Eastern Test Range (AFETR)
Object type
Payload
Rocket body
Debris
Shape & HBR
Unknown shape, 1.1 m
Radar Cross Section
Medium (>0.1 m² and <1 m²)

Expand to show TLE details & history
Last TLE update: 4 days ago

TLE from 4 days ago
0 ATLAS 5 CENTAUR DEB
1 44652U 18079N   26169.93948792 -.00000118  00000-0  00000-0 0  9992
2 44652  13.0999  34.4622 4530229 325.1468  12.1725  1.86569425 52202
Epoch: 2026-06-18T22:32Z
TLE epoch observation values (Epoch: 2026-06-18T22:32:51.756Z)
Latitude
0.0001°
Longitude
149.05406°
Altitude
9,799.887 km
Speed
5.914 km/s
True Right ascension
02h 17m 46s
True Declination
0° 00' 00"
Sunlit
Object was in daylight at epoch
Visualization orbit readout
Latitude
Unknown
Longitude
Unknown
Altitude
Unknown
Speed
Unknown
Apparent Right ascension
Unknown
Apparent Declination
Unknown
Sunlit
N/A
Visualization observer readout
Local Sidereal Time
23:19:25
Azimuth
Unknown
Elevation
Unknown
Doppler factor
Unknown
Orbital elements
Apogee altitude
34,124.16 km
Perigee altitude
8,868.58 km
Semi-major axis
27,874.507 km
Eccentricity
0.45302
Inclination
13.0999°
RAAN
34.4622°
Arg. of periapsis
325.1468°
True anomaly
34.88167°
Mean anomaly
12.1725°
Eccentric anomaly
21.82043°
Mean motion
0.46637 °/min
Orbital period
771.92 mins
BSTAR
0
Loading maneuver chart data...
Computing Atmospheric mass density...

Documentation

Showing up to 5 results
|